Location: Sternwarte Stuttgart
(48.7670°N, 9.1830°E)
Time: 15:52:49
(UTC+01:00)

MTI - Pass Details

Date: 24 January 2019
Orbit: 405 x 416 km, 97.6° (Epoch: 22 February)

Event Time Altitude Azimuth Distance (km) Brightness Sun altitude
Rises 07:15:13 0° 168° (SSE) 2,338 8.0 -8.1°
Reaches altitude 10° 07:17:11 10° 170° (S) 1,484 7.0 -7.8°
Maximum altitude 07:20:21 79° 256° (WSW) 430 3.7 -7.3°
Drops below altitude 10° 07:23:34 10° 344° (NNW) 1,504 6.2 -6.8°
Sets 07:25:35 0° 346° (NNW) 2,374 7.2 -6.5°
